This demonstration page uses our WeatherBlox Daily Observations layout. Learn more.

Left ArrowRight Arrow

Hourly Observations for August 27, 2019

Temp ( °F °C ) Dew Point ( °F °C ) Humidity (%) Winds ( mph kmh ) Pressure ( in mb ) Visibility ( mi km ) Precip ( " mm )
12:53 am 00:53 Clear 92 33.3 52 11.1 26 26 S 9 15 29.61 1003 10 16 0.00 0.00
1:53 am 01:53 Clear 85 29.4 56 13.3 37 37 SE 12 19 29.61 1003 10 16 0.00 0.00
2:53 am 02:53 Clear 83 28.3 58 14.4 43 43 SE 14 22 29.60 1003 10 16 0.00 0.00
3:53 am 03:53 Clear 82 27.8 59 15 46 46 SE 12 19 29.60 1003 10 16 0.00 0.00
4:53 am 04:53 Clear 80 26.7 60 15.6 51 51 SE 9 15 29.61 1003 10 16 0.00 0.00
5:53 am 05:53 Clear 77 25 61 16.1 58 58 SE 6 9 29.62 1003 10 16 0.00 0.00
6:53 am 06:53 Clear 78 25.6 61 16.1 56 56 NNE 9 15 29.65 1004 10 16 0.00 0.00
7:53 am 07:53 Sunny 76 24.4 61 16.1 60 60 NNE 12 19 29.68 1005 10 16 0.00 0.00
8:53 am 08:53 Sunny 79 26.1 64 17.8 60 60 NNE 16 26 29.72 1007 10 16 0.00 0.00
9:53 am 09:53 Sunny 83 28.3 67 19.4 59 59 NNE 18 30 29.76 1008 10 16 0.00 0.00
10:53 am 10:53 Sunny 86 30 68 20 55 55 NNE 23 37 29.78 1009 10 16 0.00 0.00
11:53 am 11:53 Sunny 90 32.2 66 18.9 45 45 NE 16 26 29.79 1009 10 16 0.00 0.00
12:53 pm 12:53 Sunny 92 33.3 65 18.3 41 41 NNE 15 24 29.79 1009 10 16 0.00 0.00
1:53 pm 13:53 Sunny 95 35 65 18.3 37 37 N 16 26 29.78 1009 10 16 0.00 0.00
2:53 pm 14:53 Sunny 98 36.7 62 16.7 31 31 N 12 19 29.76 1008 10 16 0.00 0.00
3:53 pm 15:53 Sunny 100 37.8 61 16.1 28 28 NE 7 11 29.74 1007 10 16 0.00 0.00
4:53 pm 16:53 Mostly Sunny 100 37.8 62 16.7 29 29 NNE 10 17 29.72 1007 10 16 0.00 0.00
5:53 pm 17:53 Partly Cloudy 100 37.8 63 17.2 30 30 E 9 15 29.71 1006 10 16 0.00 0.00
6:53 pm 18:53 Mostly Sunny 95 35 68 20 41 41 E 24 39 29.71 1006 9 14 0.00 0.00
7:19 pm 19:19 Sunny with Nearby Thunderstorms 92 33.3 69 20.6 47 47 E 22 35 29.63 1004 10 16 0.00 0.00
7:53 pm 19:53 Partly Cloudy with Thunderstorms 90 32.2 68 20 48 48 E 18 30 29.74 1007 10 16 0.00 0.00
8:03 pm 20:03 Partly Cloudy with Nearby Thunderstorms 89 31.7 67 19.4 48 48 ESE 25 41 29.69 1005 10 16 0.00 0.00
8:24 pm 20:24 Mostly Cloudy with Nearby Thunderstorms 78 25.6 62 16.7 58 58 S 15 24 29.79 1009 10 16 0.00 0.00
8:37 pm 20:37 Mostly Cloudy with Thunderstorms 79 26.1 64 17.8 60 60 S 10 17 29.77 1008 10 16 0.00 0.00
8:53 pm 20:53 Mostly Clear with Thunderstorms 79 26.1 61 16.1 54 54 S 9 15 29.79 1009 10 16 0.00 0.00
9:03 pm 21:03 Clear 78 25.6 62 16.7 58 58 S 7 11 29.78 1008 10 16 0.00 0.00
9:53 pm 21:53 Clear 80 26.7 62 16.7 54 54 NW 9 15 29.86 1011 10 16 0.00 0.00
10:53 pm 22:53 Mostly Cloudy with Light Rain 81 27.2 68 20 65 65 WSW 6 9 29.88 1012 10 16 0.00 0.00
11:03 pm 23:03 Mostly Cloudy with Nearby Thunderstorms 82 27.8 66 18.9 58 58 NNE 8 13 29.83 1010 10 16 0.00 0.00
11:20 pm 23:20 Mostly Clear 82 27.8 67 19.4 60 60 SSE 15 24 29.78 1009 10 16 0.00 0.00
11:35 pm 23:35 Clear 83 28.3 67 19.4 59 59 SE 14 22 29.78 1008 10 16 0.00 0.00
11:53 pm 23:53 Clear 83 28.3 68 20 61 61 SE 16 26 29.78 1009 10 16 0.00 0.00

Powered by AerisWeather